Flag for United Kingdom Weather past 2 weeks in Hinckley, England, United Kingdom

Now
42 °F

Smoke.


Feels Like: 39 °F
Forecast: 38 / 61 °F
Wind: 5 mph from Northeast

Location: Church Lawford

Current Time: Apr 21, 2015 at 9:23:23 AM

Latest Report: Apr 21, 2015 at 8:00 AM


Visibility: 6 mi

Pressure: 30.59 "Hg

Humidity: 92%

Dew point: 40 °F

Location of HinckleyLocation

Historic Weather in Hinckley — Graph

°F

Hinckley temperature yesterday

Maximum temperature yesterday: 60 °F (at 5:00 PM)
Minimum temperature yesterday: 31 °F (at 6:00 AM)
Average temperature yesterday: 45 °F

Past Weeks' High & Low Weather Summary

 TemperatureHumidityPressure
High67 °F (Apr 10, 4:00 PM)100% (Apr 6, 10:00 AM)30.64 "Hg (Apr 6, 10:00 AM)
Low31 °F (Apr 20, 6:00 AM)36% (Apr 15, 5:00 PM)29.81 "Hg (Apr 11, 5:00 AM)
Average49 °F75%30.28 "Hg
* Reported Apr 6 8:00 AM — Apr 21 8:00 AM, Hinckley, Weather by CustomWeather, © 2015

Note: Actual official high and low records may vary slightly from our data, if they occured in-between our weather recording intervals... More about our weather records

Advertising

Hinckley weather history for previous 24 hours

 ConditionsComfort  
Time TempWeatherWind HumidityBarometerVisibility
8:00 AM
Tue, Apr 21
42 °FSmoke.5 mph92%30.59 "Hg6 mi
7:00 AM33 °FChilly.1 mph97%30.58 "Hg1 mi
6:00 AM34 °FChilly.1 mph97%30.56 "Hg1 mi
5:00 AM35 °FFog.3 mph97%30.56 "Hg2 mi
4:00 AM35 °FFog.1 mph95%30.55 "Hg3 mi
3:00 AM38 °FChilly.1 mph95%30.55 "Hg7 mi
2:00 AM39 °FChilly.5 mph89%30.55 "Hg8 mi
12:00 AM46 °FCool.5 mph76%30.53 "Hg12 mi
11:00 PM
Mon, Apr 20
47 °FCool.6 mph74%30.51 "Hg11 mi
10:00 PM50 °FCool.7 mph69%30.50 "Hg11 mi
9:00 PM48 °FCool.3 mph79%30.49 "Hg8 mi
8:00 PM53 °FCool.5 mph71%30.47 "Hg9 mi
7:00 PM57 °FRefreshingly cool.3 mph59%30.45 "Hg13 mi
6:00 PM59 °FRefreshingly cool.6 mph56%30.44 "Hg12 mi
5:00 PM60 °FRefreshingly cool.6 mph51%30.44 "Hg11 mi
3:00 PM59 °FRefreshingly cool.7 mph52%30.45 "Hg9 mi
2:00 PM58 °FRefreshingly cool.6 mph54%30.45 "Hg16 mi
1:00 PM56 °FRefreshingly cool.6 mph57%30.46 "Hg17 mi
12:00 PM53 °FCool.8 mph61%30.46 "Hg14 mi
11:00 AM52 °FCool.7 mph63%30.45 "Hg17 mi
10:00 AM47 °FCool.6 mph78%30.44 "Hg8 mi
9:00 AM44 °FQuite cool.7 mph86%30.44 "Hg6 mi
Weather by CustomWeather, © 2015

See weather overviewHow to use our weather pages